CAPE
0 1 0 6 30 13 0 0 0 0 0 0 0 0 0 0 29 4 7 1 0 0 0 0 0 0 0 0 0 0 0 0 0 0 0 0 0 0 0 0 0 0 0 0 0
0 0 1 3 20 28 20 7 0 0 0 0 0 0 0 1 8 12 0 0 0 0 0 0 0 0 0 0 0 0 0 0 0 0 0 0 0 0 0 0 0 0 0 0 0
13 0 0 2 5 32 31 17 6 0 0 0 0 6 22 22 10 2 0 0 0 0 0 0 0 0 0 0 0 0 0 0 0 0 0 0 0 0 0 0 0 0 0 0 0
22 0 0 0 3 7 25 25 13 10 0 0 0 0 39 26 0 0 0 0 0 0 0 0 0 0 0 0 0 0 0 0 0 0 0 0 0 0 0 0 0 0 0 0 0
53 17 0 0 0 4 0 5 18 17 0 0 0 1 28 25 1 1 0 0 11 0 2 26 0 1 1 0 0 0 0 0 0 0 0 0 0 0 0 0 0 0 0 0 0
29 30 9 0 0 2 0 0 4 7 2 8 8 8 27 11 9 0 9 2 0 0 2 8 38 0 4 3 0 0 0 0 0 0 0 0 0 0 0 0 0 0 0 0 0
69 25 25 0 0 0 0 0 0 0 0 13 27 14 21 7 10 0 27 13 2 0 6 5 8 53 0 1 0 0 0 0 0 0 0 0 0 0 0 0 0 0 0 0 0
8 71 30 11 0 0 6 4 0 0 0 16 31 6 6 0 0 5 4 25 23 0 0 12 20 7 8 0 1 9 0 0 0 0 0 0 0 0 0 0 0 0 0 0 0
7 19 47 33 9 1 9 0 0 16 31 22 17 10 10 6 0 0 6 29 20 0 0 8 42 32 1 2 2 2 1 0 0 0 0 0 0 0 0 0 0 0 0 0 0
11 20 36 47 36 14 22 18 17 40 20 24 30 26 16 3 0 0 12 19 48 19 8 9 53 15 20 11 0 0 5 0 0 0 0 0 0 0 0 0 0 0 0 0 0
5 5 102 74 40 45 34 2 10 10 11 9 24 10 22 6 0 0 0 13 37 34 15 9 21 0 1 9 19 0 0 0 0 0 0 0 0 0 0 0 0 0 0 0 0
18 13 13 139 41 72 3 0 0 0 4 0 21 2 24 51 5 9 27 0 17 21 17 23 1 6 0 0 6 22 4 0 0 0 1 0 0 0 0 0 0 0 0 0 0
43 56 58 162 43 54 0 0 0 0 0 0 11 38 16 36 8 16 31 8 0 17 16 3 0 6 8 8 12 5 1 4 0 0 0 2 0 0 0 0 0 0 0 0 0
54 40 51 253 97 17 0 0 0 0 0 0 3 32 26 30 2 20 47 5 17 6 14 21 0 1 3 7 10 0 0 8 21 2 0 3 0 0 0 0 0 0 0 0 0
32 13 59 334 58 2 0 0 1 0 0 0 0 16 27 7 9 0 26 25 14 0 0 0 4 2 5 2 15 4 15 18 16 9 2 0 0 0 0 0 0 0 0 0 0
36 12 184 350 1 0 0 14 22 0 0 0 6 3 7 8 19 8 34 29 18 4 2 0 0 6 4 2 4 6 11 17 28 12 4 0 0 0 0 0 0 0 0 0 0
25 6 7 118 57 0 0 34 10 0 0 0 0 2 1 3 12 7 4 20 4 0 0 2 0 11 12 5 29 13 5 0 0 1 0 0 0 0 0 0 0 0 0 0 0
10 32 13 21 0 0 13 14 0 0 0 0 0 0 3 6 0 8 2 8 7 8 0 3 1 5 10 3 0 14 12 0 0 0 0 0 0 0 0 0 0 0 0 0 0
19 41 19 22 1 16 5 1 0 0 0 0 0 1 1 10 0 9 4 2 5 1 1 0 10 0 1 6 14 16 37 0 0 0 0 0 0 0 0 0 0 0 0 0 0
17 9 8 1 2 22 0 0 0 0 0 0 0 1 0 2 8 0 6 0 1 0 1 2 0 1 0 0 3 8 0 0 0 0 0 0 0 0 0 0 0 0 0 0 0
5 0 2 1 0 1 0 0 0 0 0 0 0 0 0 0 0 0 0 0 0 0 1 4 2 0 1 3 1 3 2 1 1 0 0 0 0 0 0 0 0 0 0 0 0
0 0 6 0 0 0 0 0 0 0 0 0 0 0 0 0 0 0 0 0 0 0 2 5 0 0 0 0 2 4 1 2 0 0 0 0 0 0 0 0 0 0 0 0 0
0 0 6 0 0 0 0 0 0 0 0 0 0 0 0 0 0 0 0 0 0 0 2 4 0 0 0 0 0 5 4 12 3 0 0 0 0 0 0 0 0 0 0 0 0
0 0 0 1 0 0 0 0 0 0 0 0 0 0 0 0 0 0 0 0 1 13 33 23 4 0 0 0 0 0 7 3 4 1 0 0 0 0 0 0 0 0 0 0 0
0 0 0 0 0 0 0 0 0 0 0 0 0 0 0 0 0 0 1 0 0 2 25 18 1 2 0 0 0 0 1 1 1 0 0 0 0 0 0 0 0 0 0 0 0
0 0 0 0 0 0 0 0 0 0 0 0 0 0 0 0 0 0 0 0 0 0 6 0 0 0 0 0 1 0 0 0 2 0 9 0 0 0 0 0 0 0 0 0 0
1 0 0 2 0 0 0 0 0 0 0 0 0 0 0 0 0 0 0 0 0 0 0 1 2 0 0 0 0 0 0 0 0 0 0 0 0 0 0 0 0 0 0 0 0
CIN
-0 -0 -0 -0 -0 -0 -0 -0 -0 -0 -0 -0 -0 -0 -0 -0 -0 -8 -2 -3 -0 -0 -0 -0 -0 -0 -0 -0 -0 -0 -0 -0 -0 -0 -0 -0 -0 -0 -0 -0 -0 -0 -0 -0 -0
-0 -0 -0 -0 -0 -0 -0 -6 -0 -0 -0 -0 -0 -0 -0 -2 -2 -3 -0 -0 -0 -0 -0 -0 -0 -0 -0 -0 -0 -0 -0 -0 -0 -0 -0 -0 -0 -0 -0 -0 -0 -0 -0 -0 -0
-0 -0 -0 -0 -0 -0 -1 -2 -8 -0 -0 -0 -0 -13 -8 -0 -0 -2 -0 -0 -0 -0 -0 -0 -0 -0 -0 -0 -0 -0 -0 -0 -0 -0 -0 -0 -0 -0 -0 -0 -0 -0 -0 -0 -0
-0 -0 -0 -0 -0 -0 -0 -2 -6 -8 -0 -0 -0 -0 -6 -2 -0 -0 -0 -0 -0 -0 -0 -0 -0 -1 -0 -0 -0 -0 -0 -0 -0 -0 -0 -0 -0 -0 -0 -0 -0 -0 -0 -0 -0
-0 -0 -0 -0 -0 -0 -0 -2 -3 -6 -0 -0 -0 -2 -1 -0 -2 -17 -0 -0 -8 -0 -13 -26 -1 -0 -4 -0 -0 -0 -0 -0 -0 -0 -0 -0 -0 -0 -0 -0 -0 -0 -0 -0 -0
-3 -4 -1 -0 -0 -0 -0 -0 -1 -8 -8 -20 -17 -10 -0 -0 -4 -0 -37 -19 -0 -0 -15 -12 -22 -0 -10 -19 -0 -0 -0 -0 -0 -0 -0 -0 -0 -0 -0 -0 -0 -0 -0 -0 -0
-0 -3 -4 -0 -0 -0 -0 -0 -0 -0 -0 -22 -9 -6 -0 -1 -24 -0 -38 -29 -26 -1 -15 -28 -25 -20 -1 -5 -0 -0 -0 -0 -0 -0 -0 -0 -0 -0 -0 -0 -0 -0 -0 -0 -0
-5 -0 -3 -5 -0 -0 -0 -0 -0 -0 -0 -17 -2 -9 -0 -0 -18 -31 -48 -52 -40 -2 -0 -44 -24 -23 -18 -0 -1 -14 -0 -0 -0 -0 -0 -0 -0 -0 -0 -0 -0 -0 -0 -0 -0
-24 -3 -1 -9 -6 -2 -8 -0 -0 -1 -8 -5 -0 -6 -1 -8 -0 -0 -15 -8 -44 -15 -0 -33 -20 -5 -7 -14 -3 -9 -0 -0 -0 -0 -0 -0 -0 -0 -0 -0 -0 -0 -0 -0 -0
-13 -7 -3 -11 -10 -8 -8 -5 -5 -1 -1 -2 -1 -1 -8 -1 -0 -0 -39 -27 -2 -9 -13 -7 -1 -2 -2 -5 -0 -0 -3 -0 -0 -0 -0 -0 -0 -0 -0 -0 -0 -0 -0 -0 -0
-10 -13 -10 -1 -12 -7 -4 -1 -1 -0 -0 -2 -1 -9 -35 -18 -0 -0 -0 -15 -2 -1 -3 -6 -0 -0 -1 -5 -1 -0 -0 -0 -2 -0 -0 -0 -0 -0 -0 -0 -0 -0 -0 -0 -0
-3 -17 -12 -3 -6 -1 -12 -0 -0 -0 -0 -1 -1 -7 -11 -6 -0 -2 -6 -0 -1 -0 -10 -0 -0 -0 -0 -0 -2 -4 -6 -0 -0 -0 -1 -0 -0 -0 -0 -0 -0 -0 -0 -0 -0
-2 -2 -20 -4 -36 -0 -0 -0 -0 -0 -0 -0 -2 -4 -2 -16 -7 -1 -0 -1 -0 -0 -0 -0 -1 -1 -6 -3 -0 -0 -0 -0 -0 -0 -0 -10 -0 -0 -0 -0 -0 -0 -0 -0 -0
-0 -5 -1 -1 -12 -1 -0 -0 -0 -0 -0 -0 -0 -7 -7 -5 -0 -25 -19 -8 -1 -1 -10 -2 -1 -0 -0 -0 -2 -3 -0 -3 -3 -3 -0 -8 -0 -0 -0 -0 -0 -0 -0 -0 -0
-3 -14 -1 -0 -26 -5 -0 -0 -51 -0 -0 -0 -0 -10 -16 -6 -8 -0 -32 -0 -0 -0 -0 -0 -8 -9 -0 -1 -1 -0 -0 -3 -11 -3 -11 -0 -2 -0 -0 -0 -0 -0 -0 -0 -0
-1 -20 -1 -0 -7 -0 -0 -38 -23 -0 -0 -0 -1 -0 -1 -1 -6 -15 -0 -3 -19 -50 -0 -0 -1 -3 -2 -2 -4 -2 -0 -1 -1 -1 -0 -0 -0 -0 -0 -0 -0 -0 -0 -0 -0
-1 -1 -2 -1 -2 -0 -0 -4 -9 -0 -0 -0 -0 -3 -1 -0 -0 -3 -0 -0 -0 -0 -0 -2 -0 -4 -2 -1 -1 -0 -0 -0 -0 -2 -0 -0 -0 -0 -0 -0 -0 -0 -0 -0 -0
-8 -1 -3 -0 -2 -0 -1 -1 -0 -0 -0 -0 -0 -2 -0 -0 -3 -0 -1 -0 -3 -2 -0 -1 -0 -0 -3 -0 -0 -1 -1 -2 -0 -0 -0 -0 -0 -0 -0 -0 -0 -0 -0 -0 -0
-5 -0 -0 -1 -9 -1 -0 -5 -0 -0 -0 -0 -0 -0 -0 -1 -0 -0 -0 -0 -1 -1 -0 -0 -1 -3 -7 -8 -6 -7 -0 -0 -1 -0 -0 -0 -0 -0 -0 -0 -0 -0 -0 -0 -0
-0 -0 -0 -3 -13 -0 -0 -0 -0 -0 -0 -0 -0 -0 -0 -0 -0 -0 -1 -0 -0 -0 -0 -0 -3 -5 -14 -0 -1 -0 -0 -0 -0 -0 -0 -0 -0 -0 -0 -0 -0 -0 -0 -0 -0
-0 -0 -1 -7 -0 -0 -0 -0 -0 -0 -0 -0 -0 -0 -0 -0 -0 -0 -0 -0 -0 -0 -4 -0 -0 -0 -1 -0 -0 -1 -0 -2 -1 -0 -0 -0 -0 -0 -0 -0 -0 -0 -0 -0 -0
-0 -0 -0 -0 -0 -0 -0 -0 -0 -0 -0 -0 -0 -0 -0 -0 -0 -0 -0 -0 -0 -0 -0 -0 -0 -0 -4 -0 -3 -0 -0 -0 -1 -0 -0 -0 -0 -0 -0 -0 -0 -0 -0 -0 -0
-0 -0 -0 -0 -0 -0 -0 -0 -0 -0 -0 -0 -0 -0 -0 -0 -0 -0 -0 -0 -0 -7 -10 -1 -0 -0 -0 -0 -0 -2 -0 -1 -1 -1 -0 -0 -0 -0 -0 -0 -0 -0 -0 -0 -0
-0 -0 -0 -0 -0 -0 -0 -0 -0 -0 -0 -0 -0 -0 -0 -0 -0 -0 -0 -0 -2 -10 -15 -18 -3 -0 -0 -0 -0 -0 -0 -0 -3 -2 -0 -0 -0 -0 -0 -0 -0 -0 -0 -0 -0
-0 -0 -0 -0 -0 -0 -0 -0 -0 -0 -0 -0 -0 -0 -0 -0 -0 -0 -2 -0 -0 -18 -7 -0 -3 -2 -0 -0 -0 -0 -0 -0 -0 -0 -1 -0 -0 -0 -0 -0 -0 -0 -0 -0 -0
-0 -0 -0 -0 -0 -0 -0 -0 -0 -0 -0 -0 -0 -0 -0 -0 -0 -0 -0 -0 -0 -0 -0 -0 -0 -0 -0 -0 -0 -0 -0 -0 -0 -0 -0 -0 -0 -0 -0 -0 -0 -0 -0 -0 -0
-0 -0 -0 -0 -0 -0 -0 -0 -0 -0 -0 -0 -0 -0 -0 -0 -0 -0 -0 -0 -0 -0 -0 -5 -5 -0 -0 -0 -0 -0 -0 -0 -0 -0 -0 -0 -0 -0 -0 -0 -0 -0 -0 -0 -0
Wind_Speed
31 30 30 30 28 26 25 25 26 26 26 27 27 27 26 25 21 25 32 27 26 22 20 24 25 25 24 22 21 20 27 30 29 26 26 23 25 22 23 22 19 16 20 20 7
31 32 31 30 29 27 25 24 25 25 25 25 25 25 25 22 27 33 27 28 25 22 26 26 28 25 28 26 26 25 29 28 26 27 32 32 28 29 26 26 25 24 23 18 5
32 31 31 31 30 28 26 25 24 24 24 24 24 23 23 20 31 34 25 27 24 21 24 25 24 24 30 28 28 28 36 29 32 35 32 36 36 30 30 32 29 28 24 15 10
33 32 31 31 30 29 28 26 24 24 24 23 23 22 20 21 35 24 25 21 19 18 20 23 25 29 32 34 29 37 33 29 34 30 35 40 36 37 34 37 32 36 25 14 9
34 32 31 30 30 28 28 27 24 23 23 22 22 21 21 30 32 20 20 17 17 17 21 24 28 30 35 33 32 37 35 33 33 31 35 36 42 41 43 41 38 33 23 17 14
35 33 31 30 29 28 26 25 25 24 23 22 22 22 27 39 23 23 20 13 17 19 22 22 27 27 31 33 36 33 34 35 34 33 32 37 43 38 40 37 35 33 29 22 16
39 35 31 29 29 28 26 24 25 24 22 22 20 23 34 36 21 22 23 21 16 18 22 21 21 25 29 35 34 36 42 37 37 35 36 31 46 44 42 39 40 38 34 30 24
39 36 34 29 27 26 26 24 23 23 22 21 18 22 37 27 26 23 20 21 16 19 20 17 18 23 28 27 32 39 39 49 37 33 35 32 52 39 37 40 43 41 36 35 30
43 38 35 32 27 25 24 24 23 23 22 20 22 25 35 22 29 26 20 20 18 18 19 19 21 27 27 34 40 41 50 47 42 31 32 37 46 38 37 41 45 45 43 38 37
43 38 33 31 29 24 21 20 21 21 21 20 24 29 33 31 24 25 23 18 20 18 20 22 24 32 34 39 51 47 49 47 46 34 35 45 51 46 41 46 48 46 44 43 42
46 42 37 32 29 24 20 19 25 29 30 31 29 32 25 23 19 23 23 21 21 25 29 24 30 40 36 36 41 51 46 50 42 38 42 49 52 50 43 44 55 51 49 47 45
45 45 40 36 30 26 24 32 30 26 33 33 28 29 25 21 25 26 19 27 29 33 28 31 43 36 32 37 42 50 51 56 47 40 42 50 56 51 48 48 49 55 52 50 48
44 44 39 35 32 30 33 31 19 16 28 35 33 31 30 24 27 27 23 26 32 35 32 34 33 34 31 34 40 51 62 55 52 41 43 50 63 55 50 50 50 54 53 56 55
44 44 44 39 36 34 34 25 19 18 33 36 38 34 30 27 37 23 22 24 30 39 32 38 41 28 31 39 34 52 49 50 48 45 55 37 65 54 46 49 46 51 51 52 54
47 48 48 44 39 41 33 26 20 18 45 31 33 24 27 31 24 30 22 26 33 33 29 36 32 37 39 33 29 35 36 43 43 45 48 51 54 52 41 49 48 48 52 51 49
47 48 47 45 33 36 27 28 22 35 46 32 27 34 33 35 31 23 27 28 25 29 39 41 29 27 34 30 29 31 37 36 39 41 58 56 51 64 52 47 43 44 43 40 40
49 47 47 46 48 37 30 31 35 44 30 34 34 32 37 39 37 31 30 35 36 39 42 37 46 36 31 36 31 28 29 35 38 44 58 44 50 70 45 38 37 35 36 36 38
49 46 44 54 27 36 38 40 47 41 36 28 30 31 37 33 39 36 35 37 36 36 39 42 38 36 31 39 40 37 33 43 52 54 53 39 58 56 43 44 47 45 42 38 38
45 45 47 38 34 35 46 52 45 38 36 28 22 31 35 34 32 36 38 37 33 33 38 39 43 25 28 28 28 30 36 30 37 33 43 44 52 51 50 48 43 46 41 45 45
46 44 44 39 32 40 48 44 43 29 27 26 32 32 37 32 31 31 34 38 40 28 27 24 36 32 29 28 32 29 20 30 27 42 52 56 59 61 45 43 36 38 41 40 42
44 43 38 36 37 44 57 46 42 32 31 31 30 32 34 32 30 31 35 31 30 33 31 28 30 29 25 31 31 30 34 31 31 35 49 60 57 44 47 46 43 40 36 34 38
37 49 40 35 46 47 47 44 36 31 30 31 28 28 32 30 30 31 37 34 26 26 33 30 26 39 37 29 33 34 36 34 40 47 44 55 76 44 38 36 31 33 35 32 33
39 33 35 46 54 44 39 39 39 36 34 32 30 28 29 30 31 32 32 28 25 25 28 29 32 34 33 34 29 35 34 34 35 33 48 54 73 38 43 44 33 30 33 34 31
36 38 38 38 45 44 45 43 42 36 34 29 26 25 24 28 30 31 32 27 26 27 26 22 36 39 42 32 26 33 34 35 35 39 48 48 71 56 46 37 37 37 35 34 33
29 31 35 44 42 40 45 43 41 44 36 30 29 27 26 30 31 29 29 27 26 27 26 28 36 38 43 36 32 32 33 35 41 44 43 57 64 58 49 49 51 43 41 38 37
34 25 28 38 40 36 43 46 41 42 38 36 28 23 24 29 32 31 25 28 29 26 28 27 32 26 29 38 44 44 40 38 37 41 44 56 62 56 45 48 53 52 43 46 45
25 19 28 39 34 40 43 47 45 38 31 31 21 22 21 21 19 16 20 17 20 24 25 27 30 32 37 28 29 38 43 40 44 40 37 51 62 57 47 48 52 58 59 51 46
Wind_Direction
264 264 263 264 265 265 267 269 271 272 272 272 276 276 277 275 276 272 265 269 270 273 284 280 277 280 282 285 288 294 284 277 275 279 278 289 284 293 288 284 288 290 289 287 292
262 262 263 261 262 263 265 268 270 272 272 272 274 277 276 275 272 267 272 271 270 272 270 271 270 273 271 274 281 273 271 277 280 284 275 277 283 285 285 280 276 277 276 286 288
259 260 261 261 260 261 262 265 268 271 271 271 272 277 276 275 271 271 271 267 266 268 270 268 272 269 266 271 272 272 265 270 277 276 281 274 275 282 280 273 271 274 275 281 273
257 257 258 259 259 258 260 264 265 268 270 270 270 274 275 269 263 282 280 260 262 262 265 264 264 262 263 263 270 267 272 272 274 280 279 269 277 275 274 267 274 264 273 275 258
254 255 255 256 257 257 258 260 263 266 268 268 269 272 267 261 262 292 298 272 256 259 260 261 261 263 262 266 268 269 272 272 274 275 276 276 267 270 268 267 268 273 273 270 262
251 251 252 253 255 256 257 257 259 263 266 266 267 269 262 256 275 278 292 295 259 257 260 262 266 264 266 265 263 272 271 274 273 273 277 276 270 275 267 272 274 269 269 271 264
250 247 248 249 251 253 255 255 257 260 262 264 267 265 258 257 282 281 276 279 267 260 263 267 268 266 265 266 268 267 268 272 268 273 274 279 268 267 264 270 266 264 266 267 269
252 247 245 245 247 249 251 253 255 257 258 262 266 268 259 269 269 279 278 273 276 266 267 269 272 271 269 267 268 264 266 260 270 270 274 273 263 275 270 266 263 262 266 265 268
250 249 240 241 240 244 248 250 253 255 255 259 262 262 262 273 260 261 274 269 268 273 270 268 269 268 267 263 261 259 259 260 265 267 274 268 270 275 270 265 262 260 262 266 266
248 249 234 232 235 236 242 247 252 254 253 258 264 259 262 260 265 257 261 264 266 262 268 265 263 261 261 254 253 255 255 258 260 270 272 268 265 267 273 262 261 261 263 264 262
244 244 238 231 227 225 227 239 243 248 243 246 253 252 270 268 267 259 254 253 263 258 254 258 257 253 253 259 262 257 258 259 265 271 270 266 265 266 274 269 256 259 261 261 262
242 242 240 226 219 217 221 237 238 257 246 248 263 252 265 269 263 258 247 247 251 253 253 258 255 263 264 262 260 257 256 256 263 270 268 268 264 268 270 268 262 255 259 260 260
241 238 237 221 215 208 222 230 233 248 253 248 250 254 255 259 262 255 243 248 251 252 251 256 270 257 263 262 260 256 252 256 262 269 271 274 263 264 268 268 266 258 260 257 255
239 236 233 224 217 213 225 222 231 260 253 251 243 254 249 256 257 259 244 252 253 250 253 260 256 265 257 258 263 260 257 260 262 265 262 273 259 262 269 266 267 261 264 259 257
237 234 231 220 226 221 226 215 224 250 248 252 242 253 245 244 256 250 251 250 252 250 248 255 266 251 257 260 264 268 268 259 260 261 262 262 262 259 268 267 265 265 262 260 257
233 231 228 221 215 217 213 206 214 236 246 246 241 237 238 241 248 257 247 253 262 257 252 253 265 262 258 261 260 276 269 266 263 263 258 257 260 253 258 269 274 275 268 265 260
228 227 230 234 215 197 198 204 221 234 244 241 241 237 235 239 242 246 246 243 246 250 251 256 253 260 259 258 262 255 260 258 254 253 252 259 257 246 260 274 276 282 277 268 262
225 227 229 225 195 194 200 213 229 229 233 246 240 238 237 239 242 242 245 249 246 252 255 248 253 249 255 253 258 252 253 256 256 256 259 263 252 253 264 270 264 268 269 267 261
222 225 226 226 204 197 197 213 224 233 235 232 229 233 240 241 247 240 243 246 248 247 250 250 253 261 253 258 252 258 252 258 264 270 262 259 257 265 267 268 277 266 267 259 251
219 222 228 209 199 210 210 218 233 237 223 224 240 239 237 237 243 234 240 248 244 242 246 263 253 256 257 254 256 260 254 258 260 261 259 256 258 255 266 273 278 280 275 271 265
221 218 216 205 207 216 225 231 227 232 226 233 242 241 241 237 238 238 245 248 241 241 241 258 259 260 256 249 247 250 255 262 270 270 262 258 257 267 268 275 276 279 283 287 276
217 218 211 198 211 221 221 220 225 224 235 238 241 244 239 237 236 242 244 247 250 241 242 247 267 254 254 270 256 256 258 257 263 265 268 264 254 268 278 291 292 281 283 294 288
214 215 210 210 215 216 215 224 223 223 233 232 235 242 245 236 242 244 247 251 250 245 246 244 257 259 259 264 261 257 256 259 263 277 265 263 253 275 276 277 282 287 292 294 293
211 210 210 214 222 215 207 217 220 226 226 231 237 243 237 238 249 242 247 253 250 250 253 251 254 256 256 265 264 258 259 259 262 265 268 270 259 269 273 276 275 281 288 296 296
212 219 211 210 210 209 206 214 214 217 229 235 241 240 240 240 243 247 246 250 252 251 254 254 257 259 259 265 270 271 264 260 261 265 270 267 266 269 273 271 271 277 283 288 294
210 217 210 205 204 204 207 211 212 219 225 231 238 235 245 244 243 245 246 250 251 255 250 257 259 265 272 265 266 266 269 266 264 267 269 269 270 272 279 276 270 268 277 280 288
221 226 213 207 208 208 211 209 214 216 234 235 230 232 246 252 251 251 255 253 259 255 250 256 259 266 267 278 278 272 263 265 265 266 267 268 251 257 283 278 273 265 268 277 282